CHB6435 ZUCK-ZSHC

Flight info

Callsign CHB6435
Flight time N/A
Altitude 35100
Route OLNER6Y OLNER B213 WHA R343 UPLEL W95 SAPIN A470 IGRAT IGRAT91
Aircraft A320/M-SDE3FGHIRWY/LB1

Departure

Time N/A
Airport Chongqing Jiangbei International Airport (ZUCK)

Arrival

Time 2026-04-29 09:04
Airport Hangzhou Xiaoshan International Airport (ZSHC)
Time Latitude Longitude Altitude Speed Heading
2026-04-29 07:45 30.48642 110.27598 35396 ft 524 kts 78°
2026-04-29 07:45 30.49232 110.31771 35389 ft 524 kts 78°
2026-04-29 07:45 30.50419 110.40119 35393 ft 525 kts 77°
2026-04-29 07:46 30.51605 110.48466 35404 ft 525 kts 78°
2026-04-29 07:46 30.52786 110.56813 35409 ft 524 kts 78°
2026-04-29 07:47 30.53956 110.65156 35418 ft 524 kts 78°
2026-04-29 07:47 30.55113 110.73505 35417 ft 524 kts 78°
2026-04-29 07:48 30.56275 110.81852 35409 ft 523 kts 79°
2026-04-29 07:48 30.57430 110.90174 35396 ft 522 kts 79°
2026-04-29 07:49 30.58576 110.98511 35407 ft 524 kts 79°
2026-04-29 07:49 30.59711 111.06855 35419 ft 524 kts 79°
2026-04-29 07:50 30.60847 111.15202 35402 ft 523 kts 79°
2026-04-29 07:50 30.61986 111.23545 35406 ft 523 kts 79°
2026-04-29 07:51 30.63105 111.31890 35404 ft 523 kts 80°
2026-04-29 07:51 30.64214 111.40238 35407 ft 523 kts 80°
2026-04-29 07:52 30.65264 111.48605 35400 ft 524 kts 85°
2026-04-29 07:52 30.65710 111.57052 35405 ft 524 kts 86°
2026-04-29 07:53 30.66136 111.65498 35397 ft 524 kts 86°
2026-04-29 07:53 30.66567 111.73942 35400 ft 524 kts 86°
2026-04-29 07:54 30.67006 111.82393 35382 ft 523 kts 87°
2026-04-29 07:54 30.67431 111.90835 35383 ft 523 kts 87°
2026-04-29 07:55 30.67856 111.99280 35398 ft 524 kts 86°
2026-04-29 07:55 30.68415 112.07717 35434 ft 524 kts 85°
2026-04-29 07:56 30.69046 112.16139 35407 ft 523 kts 86°
2026-04-29 07:56 30.69643 112.24514 35410 ft 523 kts 86°
2026-04-29 07:57 30.70202 112.32938 35410 ft 523 kts 86°
2026-04-29 07:57 30.70751 112.41364 35406 ft 523 kts 86°
2026-04-29 07:58 30.71304 112.49782 35397 ft 523 kts 87°
2026-04-29 07:58 30.71848 112.58213 35395 ft 523 kts 87°
2026-04-29 07:59 30.72386 112.66643 35388 ft 523 kts 87°
2026-04-29 07:59 30.72921 112.75079 35382 ft 523 kts 87°
2026-04-29 08:00 30.73449 112.83518 35365 ft 524 kts 88°
2026-04-29 08:00 30.73978 112.91976 35377 ft 525 kts 88°
2026-04-29 08:01 30.74503 113.00448 35370 ft 525 kts 88°
2026-04-29 08:01 30.75017 113.08916 35428 ft 525 kts 88°
2026-04-29 08:02 30.75497 113.17385 35388 ft 524 kts 90°
2026-04-29 08:02 30.75755 113.25850 35385 ft 523 kts 92°
2026-04-29 08:03 30.75884 113.34300 35383 ft 523 kts 92°
2026-04-29 08:03 30.76012 113.41324 35376 ft 523 kts 91°
2026-04-29 08:04 30.76223 113.49783 35357 ft 524 kts 92°
2026-04-29 08:04 30.76482 113.59629 35362 ft 524 kts 92°
2026-04-29 08:05 30.76657 113.66731 35368 ft 524 kts 92°
2026-04-29 08:05 30.76842 113.75212 35344 ft 525 kts 92°
2026-04-29 08:06 30.77018 113.83704 35335 ft 526 kts 92°
2026-04-29 08:06 30.77195 113.92154 35310 ft 527 kts 92°
2026-04-29 08:07 30.77365 114.00672 35303 ft 527 kts 93°
2026-04-29 08:07 30.77619 114.09212 35272 ft 529 kts 91°
2026-04-29 08:08 30.78118 114.17759 35278 ft 532 kts 84°
2026-04-29 08:08 30.80096 114.26059 35307 ft 536 kts 69°
2026-04-29 08:09 30.82774 114.34150 35301 ft 536 kts 70°
2026-04-29 08:09 30.85363 114.42273 35321 ft 536 kts 71°
2026-04-29 08:10 30.87951 114.50416 35335 ft 536 kts 71°
2026-04-29 08:10 30.90591 114.58541 35334 ft 537 kts 70°
2026-04-29 08:11 30.93248 114.66666 35327 ft 537 kts 70°
2026-04-29 08:11 30.95886 114.74805 35366 ft 537 kts 71°
2026-04-29 08:12 30.98505 114.82952 35355 ft 537 kts 71°
2026-04-29 08:12 31.01114 114.91097 35348 ft 536 kts 71°
2026-04-29 08:13 31.03729 114.99237 35340 ft 536 kts 71°
2026-04-29 08:13 31.06343 115.07380 35316 ft 537 kts 71°
2026-04-29 08:14 31.08947 115.15550 35307 ft 537 kts 71°
2026-04-29 08:14 31.11545 115.23734 35359 ft 538 kts 71°
2026-04-29 08:15 31.14130 115.31917 35354 ft 536 kts 71°
2026-04-29 08:15 31.16765 115.40071 35314 ft 537 kts 71°
2026-04-29 08:16 31.19434 115.48233 35310 ft 538 kts 71°
2026-04-29 08:16 31.22089 115.56414 35311 ft 539 kts 71°
2026-04-29 08:17 31.24701 115.64577 35288 ft 540 kts 72°
2026-04-29 08:17 31.27338 115.72813 35295 ft 542 kts 72°
2026-04-29 08:18 31.29989 115.81082 35310 ft 544 kts 72°
2026-04-29 08:18 31.32642 115.89388 35325 ft 545 kts 72°
2026-04-29 08:19 31.35321 115.97693 35327 ft 548 kts 72°
2026-04-29 08:19 31.38063 116.06052 35341 ft 551 kts 72°
2026-04-29 08:20 31.40808 116.14430 35387 ft 551 kts 72°
2026-04-29 08:20 31.43542 116.22869 35383 ft 550 kts 72°
2026-04-29 08:21 31.46223 116.31194 35345 ft 550 kts 72°
2026-04-29 08:21 31.48919 116.39588 35344 ft 551 kts 72°
2026-04-29 08:22 31.51622 116.47981 35346 ft 551 kts 72°
2026-04-29 08:22 31.54323 116.56393 35344 ft 551 kts 72°
2026-04-29 08:23 31.57016 116.64825 35370 ft 553 kts 73°
2026-04-29 08:23 31.59704 116.73262 35364 ft 552 kts 73°
2026-04-29 08:24 31.62395 116.81701 35358 ft 552 kts 73°
2026-04-29 08:24 31.65072 116.90137 35307 ft 551 kts 73°
2026-04-29 08:25 31.67745 116.98580 35312 ft 551 kts 73°
2026-04-29 08:25 31.70395 117.07023 35356 ft 551 kts 73°
2026-04-29 08:26 31.72997 117.15498 35338 ft 551 kts 74°
2026-04-29 08:26 31.75582 117.23976 35320 ft 550 kts 76°
2026-04-29 08:27 31.77031 117.32658 35327 ft 536 kts 94°
2026-04-29 08:27 31.76743 117.41277 35327 ft 525 kts 103°
2026-04-29 08:28 31.76149 117.49835 35308 ft 524 kts 103°
2026-04-29 08:28 31.75552 117.58387 35330 ft 524 kts 103°
2026-04-29 08:29 31.74953 117.66857 35335 ft 524 kts 103°
2026-04-29 08:29 31.74350 117.75437 35337 ft 523 kts 103°
2026-04-29 08:30 31.73442 117.88157 35338 ft 523 kts 103°
2026-04-29 08:31 31.72823 117.96675 35384 ft 523 kts 103°
2026-04-29 08:31 31.72197 118.05194 35361 ft 524 kts 103°
2026-04-29 08:32 31.71564 118.13703 35303 ft 523 kts 103°
2026-04-29 08:32 31.70969 118.22214 35316 ft 523 kts 103°
2026-04-29 08:33 31.70396 118.30722 35324 ft 523 kts 103°
2026-04-29 08:33 31.69806 118.39219 35291 ft 522 kts 103°
2026-04-29 08:34 31.69200 118.47700 35322 ft 520 kts 103°
2026-04-29 08:34 31.68580 118.56167 35331 ft 520 kts 103°
2026-04-29 08:35 31.67961 118.64616 35108 ft 519 kts 103°
2026-04-29 08:35 31.67650 118.68831 34856 ft 518 kts 103°
2026-04-29 08:35 31.67341 118.73041 34627 ft 517 kts 103°
2026-04-29 08:35 31.67033 118.77249 34400 ft 517 kts 103°
2026-04-29 08:36 31.66725 118.81458 34166 ft 517 kts 103°
2026-04-29 08:36 31.66414 118.85663 33907 ft 518 kts 103°
2026-04-29 08:36 31.65923 118.89811 33648 ft 508 kts 111°
2026-04-29 08:36 31.64967 118.93760 32971 ft 500 kts 120°
2026-04-29 08:37 31.63519 118.97445 31935 ft 491 kts 130°
2026-04-29 08:37 31.61669 119.00700 31634 ft 469 kts 138°
2026-04-29 08:37 31.59590 119.03556 31076 ft 453 kts 146°
2026-04-29 08:37 31.57286 119.06000 30526 ft 438 kts 153°
2026-04-29 08:38 31.54873 119.08138 29908 ft 433 kts 154°
2026-04-29 08:38 31.52479 119.10239 29386 ft 428 kts 154°
2026-04-29 08:38 31.50107 119.12319 28868 ft 423 kts 154°
2026-04-29 08:38 31.47766 119.14371 28359 ft 418 kts 154°
2026-04-29 08:39 31.45447 119.16401 27857 ft 413 kts 154°
2026-04-29 08:39 31.43156 119.18402 27368 ft 409 kts 154°
2026-04-29 08:39 31.40890 119.20382 26886 ft 404 kts 153°
2026-04-29 08:39 31.38649 119.22339 26420 ft 400 kts 153°
2026-04-29 08:40 31.36427 119.24276 25967 ft 396 kts 153°
2026-04-29 08:40 31.34231 119.26189 25511 ft 392 kts 153°
2026-04-29 08:40 31.32056 119.28080 25090 ft 388 kts 153°
2026-04-29 08:40 31.29894 119.29956 24664 ft 385 kts 153°
2026-04-29 08:41 31.27755 119.31812 24264 ft 382 kts 152°
2026-04-29 08:41 31.25635 119.33655 23861 ft 379 kts 152°
2026-04-29 08:41 31.23525 119.35488 23417 ft 377 kts 152°
2026-04-29 08:41 31.21427 119.37311 23034 ft 374 kts 152°
2026-04-29 08:42 31.19342 119.39122 22644 ft 373 kts 152°
2026-04-29 08:42 31.17268 119.40929 22261 ft 371 kts 152°
2026-04-29 08:42 31.15209 119.42730 21881 ft 369 kts 152°
2026-04-29 08:42 31.13186 119.44502 21501 ft 367 kts 152°
2026-04-29 08:43 31.11146 119.46284 21094 ft 365 kts 152°
2026-04-29 08:43 31.09115 119.48057 20720 ft 363 kts 152°
2026-04-29 08:43 31.07097 119.49816 20324 ft 362 kts 152°
2026-04-29 08:43 31.05081 119.51571 19927 ft 360 kts 151°
2026-04-29 08:44 31.03085 119.53312 19532 ft 358 kts 151°
2026-04-29 08:44 31.01094 119.55049 19127 ft 356 kts 151°
2026-04-29 08:44 30.99112 119.56779 18731 ft 355 kts 151°
2026-04-29 08:44 30.97141 119.58498 18308 ft 354 kts 151°
2026-04-29 08:45 30.95172 119.60211 17886 ft 351 kts 151°
2026-04-29 08:45 30.93220 119.61908 17495 ft 348 kts 151°
2026-04-29 08:45 30.91284 119.63591 17108 ft 346 kts 150°
2026-04-29 08:45 30.90007 119.64698 16754 ft 347 kts 150°
2026-04-29 08:46 30.88063 119.66381 16284 ft 348 kts 150°
2026-04-29 08:46 30.85475 119.68623 15772 ft 345 kts 150°
2026-04-29 08:46 30.84202 119.69728 15518 ft 344 kts 150°
2026-04-29 08:46 30.82289 119.71388 15132 ft 342 kts 149°
2026-04-29 08:47 30.80383 119.73041 14745 ft 341 kts 150°
2026-04-29 08:47 30.77849 119.75233 14236 ft 339 kts 150°
2026-04-29 08:47 30.76598 119.76315 13975 ft 338 kts 149°
2026-04-29 08:47 30.74716 119.77946 13565 ft 336 kts 149°
2026-04-29 08:48 30.72846 119.79568 13172 ft 335 kts 149°
2026-04-29 08:48 30.70988 119.81184 12783 ft 333 kts 148°
2026-04-29 08:48 30.69160 119.82817 12383 ft 331 kts 147°
2026-04-29 08:48 30.67347 119.84468 11984 ft 329 kts 147°
2026-04-29 08:49 30.65566 119.86104 11599 ft 325 kts 146°
2026-04-29 08:49 30.63755 119.87657 11197 ft 322 kts 153°
2026-04-29 08:49 30.61814 119.88916 10801 ft 318 kts 155°
2026-04-29 08:49 30.59876 119.90144 10425 ft 316 kts 155°
2026-04-29 08:50 30.57980 119.91348 10296 ft 305 kts 154°
2026-04-29 08:50 30.56152 119.92513 10161 ft 294 kts 154°
2026-04-29 08:50 30.54380 119.93639 9932 ft 288 kts 154°
2026-04-29 08:50 30.52639 119.94743 9755 ft 285 kts 154°
2026-04-29 08:51 30.50908 119.95838 9391 ft 283 kts 153°
2026-04-29 08:51 30.49174 119.96935 9013 ft 283 kts 154°
2026-04-29 08:51 30.47442 119.98031 8644 ft 284 kts 153°
2026-04-29 08:51 30.45715 119.99122 8272 ft 282 kts 153°
2026-04-29 08:52 30.43992 120.00210 7902 ft 281 kts 151°
2026-04-29 08:52 30.42290 120.01289 7759 ft 280 kts 150°
2026-04-29 08:52 30.40578 120.02376 7695 ft 281 kts 150°
2026-04-29 08:52 30.38887 120.03448 7633 ft 281 kts 150°
2026-04-29 08:53 30.37147 120.04549 7571 ft 281 kts 150°
2026-04-29 08:53 30.35453 120.05624 7510 ft 281 kts 150°
2026-04-29 08:53 30.33738 120.06710 7454 ft 281 kts 149°
2026-04-29 08:53 30.32020 120.07796 7372 ft 281 kts 150°
2026-04-29 08:54 30.30304 120.08877 7298 ft 280 kts 150°
2026-04-29 08:54 30.28588 120.09957 7222 ft 281 kts 150°
2026-04-29 08:54 30.26874 120.11034 7149 ft 280 kts 149°
2026-04-29 08:54 30.25162 120.12113 7070 ft 280 kts 148°
2026-04-29 08:55 30.23411 120.13115 6995 ft 283 kts 160°
2026-04-29 08:55 30.21459 120.13284 6923 ft 285 kts 189°
2026-04-29 08:55 30.19639 120.12395 6572 ft 290 kts 218°
2026-04-29 08:55 30.18415 120.10570 6208 ft 284 kts 245°
2026-04-29 08:56 30.17543 120.08583 6086 ft 271 kts 241°
2026-04-29 08:56 30.16270 120.07078 5950 ft 258 kts 205°
2026-04-29 08:56 30.14591 120.06652 5722 ft 246 kts 171°
2026-04-29 08:56 30.12982 120.07261 5249 ft 245 kts 146°
2026-04-29 08:57 30.11632 120.08453 4819 ft 244 kts 128°
2026-04-29 08:57 30.10676 120.10007 4433 ft 232 kts 110°
2026-04-29 08:57 30.10161 120.11730 3996 ft 225 kts 96°
2026-04-29 08:57 30.10081 120.13518 3485 ft 222 kts 80°
2026-04-29 08:58 30.10426 120.15228 3135 ft 218 kts 66°
2026-04-29 08:58 30.11082 120.16789 2979 ft 213 kts 60°
2026-04-29 08:58 30.11739 120.18259 2954 ft 198 kts 60°
2026-04-29 08:58 30.12349 120.19626 2958 ft 185 kts 60°
2026-04-29 08:59 30.12928 120.20922 2987 ft 180 kts 60°
2026-04-29 08:59 30.13495 120.22194 2968 ft 173 kts 60°
2026-04-29 08:59 30.14048 120.23433 2975 ft 174 kts 60°
2026-04-29 08:59 30.14590 120.24649 2973 ft 170 kts 60°
2026-04-29 09:00 30.15107 120.25808 2962 ft 154 kts 60°
2026-04-29 09:00 30.15579 120.26867 2872 ft 144 kts 60°
2026-04-29 09:00 30.16027 120.27873 2725 ft 138 kts 59°
2026-04-29 09:00 30.16462 120.28848 2550 ft 136 kts 60°
2026-04-29 09:01 30.16892 120.29812 2380 ft 134 kts 59°
2026-04-29 09:01 30.17315 120.30762 2221 ft 132 kts 59°
2026-04-29 09:01 30.17736 120.31708 2026 ft 132 kts 58°
2026-04-29 09:01 30.18158 120.32654 1832 ft 132 kts 57°
2026-04-29 09:02 30.18577 120.33596 1652 ft 131 kts 58°
2026-04-29 09:02 30.18992 120.34529 1470 ft 130 kts 58°
2026-04-29 09:02 30.19406 120.35460 1295 ft 130 kts 58°
2026-04-29 09:02 30.19817 120.36384 1113 ft 129 kts 57°
2026-04-29 09:03 30.20231 120.37314 925 ft 131 kts 59°
2026-04-29 09:03 30.20645 120.38247 749 ft 130 kts 56°
2026-04-29 09:03 30.21051 120.39159 578 ft 131 kts 58°
2026-04-29 09:03 30.21468 120.40100 418 ft 132 kts 57°
2026-04-29 09:04 30.21886 120.41044 203 ft 131 kts 60°
2026-04-29 09:04 30.22297 120.41973 49 ft 128 kts 58°
2026-04-29 09:04 30.22663 120.42789 32 ft 90 kts 63°
2026-04-29 09:04 30.22869 120.43253 34 ft 42 kts 62°
2026-04-29 09:05 30.22990 120.43509 35 ft 27 kts 60°
2026-04-29 09:05 30.23077 120.43652 34 ft 17 kts 43°
2026-04-29 09:05 30.23166 120.43725 33 ft 15 kts 35°
2026-04-29 09:05 30.23245 120.43789 32 ft 13 kts 34°
2026-04-29 09:06 30.23318 120.43847 32 ft 12 kts 39°
2026-04-29 09:06 30.23357 120.43925 32 ft 11 kts 65°
2026-04-29 09:06 30.23393 120.44001 32 ft 11 kts 62°
2026-04-29 09:06 30.23429 120.44074 31 ft 11 kts 48°
2026-04-29 09:07 30.23497 120.44062 32 ft 10 kts 331°
2026-04-29 09:07 30.23551 120.44028 32 ft 7 kts 331°
2026-04-29 09:07 30.23591 120.44003 31 ft 8 kts 331°
2026-04-29 09:07 30.23675 120.43958 31 ft 15 kts 335°
2026-04-29 09:08 30.23766 120.43902 32 ft 15 kts 329°
2026-04-29 09:08 30.23854 120.43850 32 ft 14 kts 334°
2026-04-29 09:08 30.23952 120.43792 31 ft 17 kts 333°
2026-04-29 09:08 30.24054 120.43732 31 ft 16 kts 334°
2026-04-29 09:09 30.24155 120.43673 31 ft 17 kts 332°
2026-04-29 09:09 30.24259 120.43612 32 ft 17 kts 333°
2026-04-29 09:09 30.24362 120.43551 32 ft 17 kts 333°
2026-04-29 09:09 30.24461 120.43492 32 ft 8 kts 332°
2026-04-29 09:10 30.24506 120.43464 32 ft 6 kts 332°
2026-04-29 09:10 30.24530 120.43450 32 ft 2 kts 332°
2026-04-29 09:10 30.24533 120.43447 32 ft 0 kts 332°
2026-04-29 09:11 30.24535 120.43446 32 ft 2 kts 332°
2026-04-29 09:11 30.24560 120.43430 32 ft 4 kts 327°
2026-04-29 09:11 30.24569 120.43385 32 ft 11 kts 254°
2026-04-29 09:11 30.24534 120.43305 32 ft 14 kts 243°
2026-04-29 09:12 30.24486 120.43196 32 ft 13 kts 243°
2026-04-29 09:12 30.24450 120.43113 32 ft 10 kts 243°
2026-04-29 09:12 30.24416 120.43071 32 ft 5 kts 190°
2026-04-29 09:12 30.24386 120.43086 32 ft 4 kts 148°
2026-04-29 09:13 30.24367 120.43097 32 ft 2 kts 154°
2026-04-29 09:13 30.24356 120.43103 32 ft 2 kts 154°
2026-04-29 09:13 30.24350 120.43106 32 ft 1 kts 154°
2026-04-29 09:13 30.24346 120.43109 31 ft 1 kts 154°